Regional Weather Roundup
Issued by NWS Albany, NY

Home | Current Version | Previous Version | Text Only | Print | Product List | Glossary On
Versions: 1 2 3 4 5 6 7 8 9 10 11 12 13 14 15 16 17 18 19 20 21 22 23 24 25 26 27 28 29 30 31 32 33 34 35 36 37 38 39 40 41 42 43 44 45 46 47 48 49 50
787
ASUS41 KALY 271010
RWRALY

NEW YORK STATE HOURLY WEATHER ROUNDUP
NATIONAL WEATHER SERVICE ALBANY NY
600 AM EDT WED JUL 27 2016

NOTE: "FAIR" INDICATES FEW OR NO CLOUDS BELOW 12,000 FEET WITH NO
SIGNIFICANT WEATHER AND/OR NO OBSTRUCTIONS TO VISIBILITY.

NYZ032-033-038>043-046>054-057>066-NYZ062>081-082-084-271100-
EAST


CITY           SKY/WX    TMP DP  RH WIND       PRES   REMARKS
ALBANY         PTCLDY    64  59  83 CALM      29.95R
GLENS FALLS    FOG       60  57  89 CALM      29.94S VSB 1/2
POUGHKEEPSIE   CLEAR     63  59  87 CALM      29.95S
NEWBURGH       PTCLDY    63  63 100 CALM      29.97S
MONTGOMERY     CLEAR     61  59  93 CALM      29.97R
WHITE PLAINS   PTCLDY    68  61  78 NW7       29.95R
ISLIP          MOCLDY    70  64  81 CALM      29.94R
NEW YORK CITY  CLOUDY    77  63  61 E5        29.94R
CENTRAL PARK   CLOUDY    75  62  64 N3        29.97S
$$

NYZ005>009-017-018-044>046-055-056-271100-
CENTRAL


CITY           SKY/WX    TMP DP  RH WIND       PRES   REMARKS
FULTON         CLEAR     61  58  90 CALM      29.97R
SYRACUSE       PTCLDY    60  59  96 E5        29.96R
ROME           CLEAR     58  58 100 CALM      29.99R
ELMIRA         MOCLDY    58  56  93 CALM      30.01R
BINGHAMTON     CLEAR     61  59  93 W3        30.02R
MONTICELLO     CLEAR     57  57 100 CALM      30.03R
$$

NYZ026>034-041>043-087-271100-
NORTH


CITY           SKY/WX    TMP DP  RH WIND       PRES   REMARKS
WATERTOWN      CLEAR     64  62  93 S3        29.95R
FORT DRUM      NOT AVBL
MASSENA        CLEAR     62  59  90 SW6       29.91R
SARANAC LAKE     N/A     48  46  93 CALM      29.98R FOG
PLATTSBURGH    CLEAR     62  60  93 CALM      29.91R
$$

NYZ001>004-010>016-019>021-085-271100-
WEST


CITY           SKY/WX    TMP DP  RH WIND       PRES   REMARKS
NIAGARA FALLS  CLEAR     66  61  84 CALM      29.97S
BUFFALO        PTCLDY    66  62  87 SW6       29.98S
DUNKIRK        CLEAR     65  61  87 SW6       30.01R
JAMESTOWN      CLEAR     59  55  88 S3        30.05S
WELLSVILLE     CLEAR     58  56  93 CALM      30.07R
ROCHESTER      PTCLDY    63  61  93 SW3       29.98R
PENN YAN       CLEAR     64  61  90 SW6       29.99S
$$

             KEY
       WCI = WIND CHILL INDEX
       VSB = VISIBILITY
       HX  = HEAT INDEX
$$




USA.gov is the U.S. government's official web portal to all federal, state and local government web resources and services.